TimeEST,TemperatureF,Dew PointF,Humidity,Sea Level PressureIn,VisibilityMPH,Wind Direction,Wind SpeedMPH,Gust SpeedMPH,PrecipitationIn,Events,Conditions,WindDirDegrees,DateUTC
12:53 AM,70.0,68.0,93,30.11,10.0,NNW,3.5,-,N/A,,Clear,340,2013-01-07 05:53:00
1:35 AM,71.6,68.0,88,30.10,10.0,Calm,Calm,-,N/A,,Mostly Cloudy,0,2013-01-07 06:35:00
1:45 AM,71.6,68.0,88,30.09,10.0,NNW,3.5,-,N/A,,Scattered Clouds,340,2013-01-07 06:45:00
1:53 AM,70.0,68.0,93,30.09,10.0,Calm,Calm,-,N/A,,Partly Cloudy,0,2013-01-07 06:53:00
2:53 AM,69.1,68.0,96,30.09,10.0,NNW,3.5,-,N/A,,Scattered Clouds,340,2013-01-07 07:53:00
3:53 AM,69.1,66.9,93,30.08,10.0,NNW,5.8,-,N/A,,Partly Cloudy,340,2013-01-07 08:53:00
4:53 AM,69.1,66.9,93,30.08,10.0,Calm,Calm,-,N/A,,Scattered Clouds,0,2013-01-07 09:53:00
5:53 AM,69.1,68.0,96,30.10,10.0,Calm,Calm,-,N/A,,Mostly Cloudy,0,2013-01-07 10:53:00
6:53 AM,69.1,66.9,93,30.11,10.0,NNE,3.5,-,N/A,,Scattered Clouds,20,2013-01-07 11:53:00
7:53 AM,70.0,66.9,90,30.13,10.0,Calm,Calm,-,N/A,,Scattered Clouds,0,2013-01-07 12:53:00
8:53 AM,71.1,66.9,87,30.15,10.0,NNE,5.8,-,0.00,Rain,Light Rain,20,2013-01-07 13:53:00
9:40 AM,69.8,66.2,88,30.17,2.0,SE,4.6,-,0.05,Rain,Rain,130,2013-01-07 14:40:00
9:43 AM,69.8,66.2,88,30.17,1.8,SE,3.5,-,0.07,Rain,Heavy Rain,140,2013-01-07 14:43:00
9:53 AM,70.0,66.9,90,30.17,6.0,Calm,Calm,-,0.08,Rain,Light Rain,0,2013-01-07 14:53:00
10:30 AM,71.6,69.8,94,30.17,10.0,NNW,5.8,-,0.00,,Overcast,330,2013-01-07 15:30:00
10:53 AM,72.0,71.1,97,30.16,10.0,North,3.5,-,0.00,,Mostly Cloudy,360,2013-01-07 15:53:00
11:26 AM,73.4,69.8,88,30.14,10.0,North,6.9,-,N/A,,Overcast,10,2013-01-07 16:26:00
11:53 AM,72.0,69.1,91,30.14,10.0,NE,9.2,-,N/A,,Overcast,40,2013-01-07 16:53:00
12:43 PM,71.6,68.0,88,30.11,10.0,North,8.1,-,0.00,,Mostly Cloudy,350,2013-01-07 17:43:00
12:53 PM,72.0,68.0,87,30.10,10.0,NNW,5.8,-,0.00,,Mostly Cloudy,340,2013-01-07 17:53:00
1:53 PM,75.0,68.0,79,30.09,10.0,North,9.2,-,N/A,,Mostly Cloudy,10,2013-01-07 18:53:00
2:53 PM,79.0,66.9,66,30.07,10.0,NE,11.5,-,N/A,,Partly Cloudy,40,2013-01-07 19:53:00
3:53 PM,77.0,66.9,71,30.08,10.0,NE,9.2,-,N/A,,Partly Cloudy,50,2013-01-07 20:53:00
4:53 PM,75.9,64.0,67,30.09,10.0,NNE,8.1,-,N/A,,Partly Cloudy,20,2013-01-07 21:53:00
5:53 PM,73.9,66.9,79,30.10,10.0,NNE,10.4,-,N/A,,Scattered Clouds,30,2013-01-07 22:53:00
6:53 PM,73.0,68.0,84,30.12,10.0,North,5.8,-,N/A,,Scattered Clouds,10,2013-01-07 23:53:00
7:53 PM,73.0,68.0,84,30.13,10.0,NNE,4.6,-,N/A,,Clear,20,2013-01-08 00:53:00
8:53 PM,73.0,68.0,84,30.14,10.0,NE,4.6,-,N/A,,Mostly Cloudy,50,2013-01-08 01:53:00
9:53 PM,72.0,66.9,84,30.13,5.0,East,9.2,-,0.09,Rain,Light Rain,80,2013-01-08 02:53:00
10:53 PM,73.0,68.0,84,30.12,10.0,ENE,6.9,-,0.00,,Mostly Cloudy,70,2013-01-08 03:53:00
11:53 PM,73.0,69.1,87,30.11,10.0,NE,4.6,-,N/A,,Mostly Cloudy,50,2013-01-08 04:53:00